FW4331 Weather Reports


time (UTC)temp
C
wind
direction
speed
KPH
gust
KPH
rain 1hr
cm
rain 24hr
cm
rain mn
cm
humidity
%
barometer
mb
20260905001548 22 152 0.0 1.6 0.00 3.33 2.03 48 1010.6
20260905000038 22 160 0.0 3.2 0.00 3.33 2.03 48 1010.6
20260904234537 22 162 1.6 3.2 0.00 3.33 2.03 48 1010.7
20260904233041 22 223 0.0 1.6 0.00 3.33 2.03 48 1010.8
20260904231539 22 227 0.0 3.2 0.00 3.33 2.03 48 1010.9
20260904230057 22 238 0.0 3.2 0.00 3.33 2.03 48 1010.8
20260904224530 22 240 0.0 3.2 0.00 3.33 2.03 48 1010.4
20260904223028 22 275 0.0 0.0 0.00 3.33 2.03 48 1010.4
20260904221525 22 275 0.0 1.6 0.00 3.33 2.03 48 1010.5
20260904220027 21 257 0.0 3.2 0.00 3.33 2.03 48 1011.0
20260904214522 21 275 3.2 8.0 0.00 3.33 2.03 48 1011.5
20260904213028 21 269 0.0 1.6 0.00 3.33 2.03 48 1011.3
20260904211517 21 296 0.0 1.6 0.30 3.33 2.03 48 1011.3
20260904210016 21 346 0.0 6.4 1.98 3.33 2.03 47 1011.3
20260904204525 20 354 3.2 11.3 1.98 3.33 2.03 44 1011.5
20260904203017 20 37 0.0 4.8 1.98 3.33 2.03 48 1011.2
20260904201510 21 251 20.9 51.5 1.57 2.90 1.63 62 1012.8
20260904200005 30 286 3.2 4.8 0.00 1.35 0.05 55 1011.8
20260904194503 31 251 3.2 6.4 0.00 1.35 0.05 50 1010.7
20260904193001 31 257 3.2 9.7 0.00 1.35 0.05 49 1010.9
20260904191600 32 278 3.2 9.7 0.00 1.35 0.05 48 1010.9
20260904190100 33 285 1.6 8.0 0.00 1.35 0.05 44 1010.9
20260904184559 33 212 3.2 8.0 0.00 1.35 0.05 45 1011.2
20260904183113 32 217 1.6 9.7 0.00 1.35 0.05 47 1011.6
20260904181554 32 261 4.8 9.7 0.00 1.35 0.05 47 1011.8
20260904180058 32 285 1.6 11.3 0.00 1.35 0.05 45 1012.0
20260904174552 32 328 4.8 9.7 0.00 1.35 0.05 46 1012.3
20260904173056 32 37 3.2 9.7 0.00 1.35 0.05 45 1012.3
20260904171607 31 13 4.8 11.3 0.00 1.35 0.05 47 1012.2
20260904170047 31 293 1.6 11.3 0.00 1.35 0.05 47 1012.6
20260904164554 31 25 4.8 14.5 0.00 1.35 0.05 47 1012.7
20260904163043 31 329 3.2 8.0 0.00 1.35 0.05 46 1012.8
20260904161546 30 32 4.8 14.5 0.00 1.35 0.05 48 1012.8
20260904160038 30 31 6.4 19.3 0.00 1.35 0.05 47 1012.9
20260904154535 30 12 6.4 14.5 0.00 1.35 0.05 48 1013.0
20260904153048 30 41 8.0 16.1 0.00 1.35 0.05 47 1013.0
20260904151526 30 25 4.8 12.9 0.00 1.35 0.05 48 1012.9
20260904150033 30 54 3.2 14.5 0.00 1.35 0.05 30 1013.0
20260904144519 28 329 1.6 8.0 0.00 1.35 0.05 26 1013.1
20260904143021 28 345 4.8 14.5 0.00 1.35 0.05 23 1013.2
20260904141513 28 284 3.2 11.3 0.00 1.35 0.05 27 1013.4
20260904140002 27 254 0.0 6.4 0.00 1.35 0.05 30 1013.3
20260904134601 27 14 1.6 6.4 0.00 1.35 0.05 31 1013.3
20260904133054 26 34 0.0 4.8 0.00 1.35 0.05 33 1013.2
20260904131600 25 42 1.6 4.8 0.00 1.35 0.05 37 1013.3
20260904130045 25 82 0.0 4.8 0.00 1.35 0.05 40 1013.5
20260904124540 24 135 0.0 4.8 0.00 1.35 0.05 40 1013.7
20260904123036 23 150 0.0 3.2 0.00 1.35 0.05 44 1013.5
20260904121530 22 127 0.0 3.2 0.00 1.35 0.05 47 1013.3
20260904120023 22 37 0.0 1.6 0.00 1.35 0.05 49 1013.3
20260904114520 21 6 0.0 4.8 0.00 1.35 0.05 49 1013.1
20260904113033 -17 0.0 0.0 0.00 1.35 0.05 1013.5
20260904111511 -17 0.0 0.0 0.00 1.35 0.05 1013.5
20260904110008 -17 0.0 0.0 0.00 1.35 0.05 1012.9
20260904104502 -17 0.0 0.0 0.00 1.35 0.05 1012.8
20260904103059 -17 0.0 0.0 0.00 1.35 0.05 1012.4
20260904101555 -17 0.0 0.0 0.00 1.35 0.05 1012.2
20260904100051 -17 231 0.0 0.0 0.00 1.35 0.05 1012.1
20260904094559 20 236 0.0 0.0 0.00 1.35 0.05 49 1012.0
20260904093039 20 235 0.0 0.0 0.00 1.35 0.05 49 1011.9
20260904091536 20 265 0.0 0.0 0.00 1.35 0.05 49 1012.1
20260904090137 20 265 0.0 0.0 0.00 1.35 0.05 49 1012.0
20260904084533 20 170 0.0 0.0 0.00 1.35 0.05 49 1012.0
20260904083038 20 169 0.0 0.0 0.00 1.35 0.05 49 1012.2
20260904081527 20 169 0.0 0.0 0.00 1.35 0.05 49 1012.3
20260904080025 21 255 0.0 1.6 0.00 1.35 0.05 49 1012.1
20260904074522 21 272 0.0 3.2 0.00 1.35 0.05 49 1012.1
20260904073023 21 140 0.0 3.2 0.00 1.35 0.05 48 1012.1
20260904071517 21 175 0.0 4.8 0.00 1.35 0.05 48 1012.1
20260904070016 21 51 0.0 3.2 0.00 1.35 0.05 48 1012.0
20260904064515 21 264 0.0 1.6 0.00 1.35 0.05 48 1011.8
20260904063011 21 278 0.0 6.4 0.00 1.35 0.05 48 1011.8
20260904061508 21 233 3.2 8.0 0.00 1.35 0.05 48 1011.9
20260904060014 21 260 0.0 0.0 0.03 1.35 0.05 48 1011.3
20260904054504 21 229 0.0 0.0 0.05 1.35 0.05 48 1010.8
20260904053059 21 134 0.0 3.2 0.05 1.35 0.05 47 1011.5
20260904051553 21 221 1.6 4.8 0.05 1.35 0.05 47 1012.7
20260904050048 21 147 0.0 4.8 0.03 1.32 0.03 46 1013.6
20260904044548 21 53 0.0 3.2 0.91 1.30 0.00 44 1013.9
20260904043043 21 81 0.0 11.3 1.30 1.30 0.00 40 1013.9
20260904041534 21 307 3.2 22.5 1.30 1.30 0.00 40 1014.8
20260904040036 21 30 20.9 38.6 1.30 1.30 0.00 42 1014.5
20260904034525 23 32 17.7 56.3 0.33 0.33 0.33 56 1014.2
20260904033025 25 68 12.9 27.4 0.00 0.00 0.00 51 1013.8
20260904031521 26 293 6.4 17.7 0.00 0.00 0.00 42 1012.6
20260904030020 26 271 0.0 1.6 0.00 0.00 0.00 52 1012.1
20260904024526 27 300 1.6 6.4 0.00 0.00 0.00 57 1012.2
20260904023016 27 251 0.0 0.0 0.00 0.00 0.00 57 1012.6
20260904021519 27 274 0.0 0.0 0.00 0.00 0.00 58 1012.6
20260904020011 27 161 0.0 0.0 0.00 0.00 0.00 59 1012.7
20260904014510 27 160 0.0 0.0 0.00 0.00 0.00 60 1012.6
20260904013008 27 160 0.0 0.0 0.00 0.00 0.00 61 1012.7
20260904011505 27 160 0.0 0.0 0.00 0.00 0.00 61 1012.7
20260904010009 27 274 0.0 0.0 0.00 0.00 0.00 62 1012.5
20260904004501 27 217 0.0 0.0 0.00 0.00 0.00 61 1012.8
20260904003123 28 201 0.0 0.0 0.00 0.00 0.00 61 1012.9